• En España
  • Lista de países
  • Para 7 días
  • Temperatura del agua
  • Mapa Satelital
  • El tiempo en el mapa
  • Informadores
  • user-avatar
    Iniciar sesión

    Tiempo cada hora Polotsk

    Hoy, 26 Mayo, Sábado

    Tiempo Temperatura Precipitaciones Viento Presión Humedad
    00:00 +13°C° 0 mm 2 mps 757 mmHg 78%
    01:00 +12°C° 0 mm 2 mps 757 mmHg 79%
    02:00 +11°C° 0 mm 3 mps 758 mmHg 82%
    03:00 +11°C° 0 mm 3 mps 758 mmHg 82%
    04:00 +10°C° 0 mm 3 mps 758 mmHg 82%
    05:00 +10°C° 0 mm 3 mps 758 mmHg 82%
    06:00 +12°C° 0 mm 3 mps 758 mmHg 77%
    07:00 +14°C° 0 mm 3 mps 758 mmHg 72%
    08:00 +17°C° 0 mm 3 mps 759 mmHg 66%
    09:00 +18°C° 0 mm 3 mps 759 mmHg 61%
    10:00 +20°C° 0 mm 3 mps 759 mmHg 56%
    11:00 +21°C° 0 mm 3 mps 759 mmHg 51%
    12:00 +21°C° 0 mm 4 mps 759 mmHg 50%
    13:00 +22°C° 0 mm 4 mps 759 mmHg 50%
    14:00 +22°C° 0 mm 4 mps 759 mmHg 49%
    15:00 +22°C° 0 mm 4 mps 758 mmHg 52%
    16:00 +22°C° 0 mm 4 mps 758 mmHg 54%
    17:00 +21°C° 0 mm 4 mps 758 mmHg 56%
    18:00 +20°C° 0 mm 3 mps 758 mmHg 63%
    19:00 +18°C° 0 mm 3 mps 758 mmHg 71%
    20:00 +16°C° 0 mm 2 mps 758 mmHg 78%
    21:00 +15°C° 0 mm 2 mps 758 mmHg 80%
    22:00 +14°C° 0 mm 2 mps 758 mmHg 83%
    23:00 +13°C° 0 mm 2 mps 758 mmHg 85%

    Mañana, 27 Mayo, Domingo

    Tiempo Temperatura Precipitaciones Viento Presión Humedad
    00:00 +13°C° 0 mm 2 mps 758 mmHg 86%
    01:00 +12°C° 0 mm 2 mps 758 mmHg 87%
    02:00 +12°C° 0 mm 2 mps 758 mmHg 88%
    03:00 +12°C° 0 mm 2 mps 758 mmHg 88%
    04:00 +12°C° 0 mm 2 mps 758 mmHg 88%
    05:00 +12°C° 0 mm 2 mps 758 mmHg 87%
    06:00 +13°C° 0 mm 2 mps 758 mmHg 81%
    07:00 +15°C° 0 mm 2 mps 758 mmHg 75%
    08:00 +17°C° 0 mm 2 mps 758 mmHg 68%
    09:00 +19°C° 0 mm 2 mps 758 mmHg 63%
    10:00 +20°C° 0 mm 2 mps 758 mmHg 57%
    11:00 +21°C° 0 mm 2 mps 757 mmHg 52%
    12:00 +23°C° 0 mm 2 mps 757 mmHg 50%
    13:00 +24°C° 0 mm 1 mps 757 mmHg 48%
    14:00 +24°C° 0 mm 1 mps 756 mmHg 46%
    15:00 +24°C° 0 mm 1 mps 756 mmHg 46%
    16:00 +24°C° 0 mm 1 mps 756 mmHg 47%
    17:00 +24°C° 0 mm 1 mps 755 mmHg 48%
    18:00 +22°C° 0 mm 1 mps 756 mmHg 55%
    19:00 +21°C° 0 mm 1 mps 756 mmHg 63%
    20:00 +19°C° 0 mm 1 mps 756 mmHg 70%
    21:00 +18°C° 0 mm 1 mps 756 mmHg 73%
    22:00 +16°C° 0 mm 1 mps 756 mmHg 75%
    23:00 +15°C° 0 mm 1 mps 756 mmHg 77%

    Pasado mañana, 28 Mayo, Lunes

    Tiempo Temperatura Precipitaciones Viento Presión Humedad
    00:00 +15°C° 0 mm 1 mps 757 mmHg 79%
    01:00 +14°C° 0 mm 1 mps 757 mmHg 81%
    02:00 +14°C° 0 mm 1 mps 757 mmHg 83%
    03:00 +14°C° 0 mm 1 mps 757 mmHg 84%
    04:00 +14°C° 0 mm 1 mps 757 mmHg 84%
    05:00 +14°C° 0 mm 2 mps 757 mmHg 85%
    06:00 +16°C° 0 mm 2 mps 758 mmHg 78%
    07:00 +17°C° 0 mm 2 mps 758 mmHg 72%
    08:00 +19°C° 0 mm 2 mps 758 mmHg 65%
    09:00 +20°C° 0 mm 2 mps 758 mmHg 60%
    10:00 +23°C° 0 mm 2 mps 759 mmHg 55%
    11:00 +24°C° 0 mm 3 mps 759 mmHg 49%
    12:00 +25°C° 0 mm 3 mps 759 mmHg 47%
    13:00 +25°C° 0 mm 2 mps 758 mmHg 44%
    14:00 +26°C° 0 mm 2 mps 758 mmHg 42%
    15:00 +25°C° 0 mm 2 mps 758 mmHg 43%
    16:00 +25°C° 0 mm 2 mps 758 mmHg 44%
    17:00 +25°C° 0 mm 2 mps 758 mmHg 45%
    18:00 +23°C° 0 mm 2 mps 758 mmHg 52%
    19:00 +20°C° 0 mm 2 mps 758 mmHg 59%
    20:00 +18°C° 0 mm 2 mps 758 mmHg 66%
    21:00 +17°C° 0 mm 2 mps 758 mmHg 69%
    22:00 +16°C° 0 mm 2 mps 758 mmHg 72%
    23:00 +15°C° 0 mm 2 mps 758 mmHg 75%

    29 Mayo, Martes

    Tiempo Temperatura Precipitaciones Viento Presión Humedad
    00:00 +14°C° 0 mm 2 mps 758 mmHg 78%
    01:00 +14°C° 0 mm 2 mps 758 mmHg 81%
    02:00 +13°C° 0 mm 2 mps 758 mmHg 84%
    03:00 +13°C° 0 mm 2 mps 758 mmHg 83%
    04:00 +13°C° 0 mm 2 mps 758 mmHg 83%
    05:00 +13°C° 0 mm 2 mps 758 mmHg 82%
    06:00 +15°C° 0 mm 2 mps 758 mmHg 77%
    07:00 +17°C° 0 mm 2 mps 758 mmHg 71%
    08:00 +19°C° 0 mm 2 mps 758 mmHg 66%
    09:00 +21°C° 0 mm 2 mps 758 mmHg 61%
    10:00 +24°C° 0 mm 1 mps 757 mmHg 57%
    11:00 +25°C° 0 mm 1 mps 757 mmHg 52%
    12:00 +26°C° 0 mm 1 mps 757 mmHg 50%
    13:00 +27°C° 0 mm 1 mps 756 mmHg 48%
    14:00 +27°C° 0 mm 1 mps 756 mmHg 45%
    15:00 +27°C° 0,1 mm 1 mps 755 mmHg 48%
    16:00 +27°C° 0,1 mm 1 mps 755 mmHg 50%
    17:00 +26°C° 0,1 mm 1 mps 754 mmHg 53%
    18:00 +25°C° 0,1 mm 1 mps 754 mmHg 61%
    19:00 +23°C° 0,1 mm 1 mps 754 mmHg 70%
    20:00 +21°C° 0,1 mm 1 mps 753 mmHg 78%
    21:00 +20°C° 0 mm 1 mps 753 mmHg 82%
    22:00 +19°C° 0 mm 2 mps 753 mmHg 86%
    23:00 +18°C° 0 mm 2 mps 753 mmHg 89%

    30 Mayo, Miércoles

    Tiempo Temperatura Precipitaciones Viento Presión Humedad
    00:00 +17°C° 0 mm 2 mps 752 mmHg 91%
    01:00 +17°C° 0 mm 2 mps 752 mmHg 93%
    02:00 +16°C° 0 mm 2 mps 752 mmHg 94%
    03:00 +16°C° 0 mm 2 mps 752 mmHg 94%
    04:00 +17°C° 0 mm 2 mps 751 mmHg 93%
    05:00 +17°C° 0 mm 2 mps 751 mmHg 93%
    06:00 +18°C° 0 mm 2 mps 751 mmHg 86%
    07:00 +20°C° 0 mm 3 mps 751 mmHg 80%
    08:00 +22°C° 0 mm 3 mps 751 mmHg 73%
    09:00 +24°C° 0,1 mm 3 mps 750 mmHg 67%
    10:00 +25°C° 0,1 mm 4 mps 750 mmHg 60%
    11:00 +27°C° 0,1 mm 4 mps 750 mmHg 54%
    12:00 +27°C° 0 mm 4 mps 750 mmHg 52%
    13:00 +27°C° 0 mm 5 mps 749 mmHg 51%
    14:00 +28°C° 0 mm 5 mps 749 mmHg 49%
    15:00 +27°C° 0 mm 4 mps 749 mmHg 50%
    16:00 +27°C° 0 mm 4 mps 749 mmHg 52%
    17:00 +27°C° 0 mm 4 mps 748 mmHg 53%
    18:00 +25°C° 0 mm 3 mps 748 mmHg 59%
    19:00 +22°C° 0 mm 3 mps 748 mmHg 66%
    20:00 +20°C° 0 mm 2 mps 748 mmHg 72%
    21:00 +19°C° 0 mm 2 mps 748 mmHg 73%
    22:00 +18°C° 0 mm 2 mps 748 mmHg 74%
    23:00 +16°C° 0 mm 2 mps 748 mmHg 76%

    31 Mayo, Jueves

    Tiempo Temperatura Precipitaciones Viento Presión Humedad
    00:00 +15°C° 0 mm 2 mps 748 mmHg 73%
    01:00 +15°C° 0 mm 2 mps 748 mmHg 71%
    02:00 +14°C° 0 mm 2 mps 748 mmHg 68%
    03:00 +13°C° 0 mm 2 mps 748 mmHg 68%
    04:00 +13°C° 0 mm 2 mps 748 mmHg 68%
    05:00 +13°C° 0 mm 2 mps 748 mmHg 68%
    06:00 +13°C° 0 mm 3 mps 748 mmHg 64%
    07:00 +16°C° 0 mm 3 mps 748 mmHg 60%
    08:00 +18°C° 0 mm 4 mps 748 mmHg 57%
    09:00 +19°C° 0 mm 4 mps 749 mmHg 54%
    10:00 +19°C° 0 mm 5 mps 749 mmHg 51%
    11:00 +20°C° 0 mm 5 mps 749 mmHg 49%
    12:00 +20°C° 0 mm 5 mps 749 mmHg 46%
    13:00 +20°C° 0 mm 5 mps 749 mmHg 43%
    14:00 +21°C° 0 mm 5 mps 750 mmHg 41%
    15:00 +20°C° 0 mm 4 mps 750 mmHg 42%
    16:00 +20°C° 0 mm 4 mps 750 mmHg 43%
    17:00 +20°C° 0 mm 4 mps 750 mmHg 44%
    18:00 +18°C° 0 mm 3 mps 750 mmHg 51%
    19:00 +16°C° 0 mm 3 mps 750 mmHg 58%
    20:00 +14°C° 0 mm 2 mps 751 mmHg 65%
    21:00 +13°C° 0 mm 2 mps 751 mmHg 67%
    22:00 +12°C° 0 mm 2 mps 751 mmHg 69%
    23:00 +10°C° 0 mm 2 mps 752 mmHg 71%
    Mostrar más